Location: Ravensburg
(48.5621°N, 13.4088°E)
Time: 17:21:29
(UTC+01:00)

ISS - Pass Details

Date: 18 November 2017
Orbit: 402 x 407 km, 51.6° (Epoch: 22 November)

Event Time Altitude Azimuth Distance (km) Brightness Sun altitude
Exits shadow 05:31:17 11° 202° (SSW) 1,387 -1.3 -17.6°
Drops below altitude 10° 05:31:38 10° 196° (SSW) 1,448 -1.1 -17.5°
Sets 05:34:34 0° 167° (SSE) 2,302 0.3 -17.1°
